Year,Month,Day,Hour,Minute,Value (Times are PST for temperature in C)
2021,08,11,00,00,19.10
2021,08,11,00,01,19.00
2021,08,11,00,02,18.90
2021,08,11,00,03,18.90
2021,08,11,00,04,18.90
2021,08,11,00,05,18.90
2021,08,11,00,06,18.90
2021,08,11,00,07,18.90
2021,08,11,00,08,18.90
2021,08,11,00,09,18.90
2021,08,11,00,10,18.90
2021,08,11,00,11,18.90
2021,08,11,00,12,18.90
2021,08,11,00,13,18.90
2021,08,11,00,14,18.90
2021,08,11,00,15,18.90
2021,08,11,00,16,18.90
2021,08,11,00,17,18.90
2021,08,11,00,18,18.90
2021,08,11,00,19,18.90
2021,08,11,00,20,18.80
2021,08,11,00,21,18.80
2021,08,11,00,22,18.80
2021,08,11,00,23,18.70
2021,08,11,00,24,18.70
2021,08,11,00,25,18.70
2021,08,11,00,26,18.60
2021,08,11,00,27,18.60
2021,08,11,00,28,18.60
2021,08,11,00,29,18.50
2021,08,11,00,30,18.50
2021,08,11,00,31,18.40
2021,08,11,00,32,18.40
2021,08,11,00,33,18.30
2021,08,11,00,34,18.30
2021,08,11,00,35,18.20
2021,08,11,00,36,18.20
2021,08,11,00,37,18.20
2021,08,11,00,38,18.10
2021,08,11,00,39,18.10
2021,08,11,00,40,18.10
2021,08,11,00,41,18.00
2021,08,11,00,42,17.90
2021,08,11,00,43,17.90
2021,08,11,00,44,17.90
2021,08,11,00,45,17.90
2021,08,11,00,46,17.90
2021,08,11,00,47,17.90
2021,08,11,00,48,17.90
2021,08,11,00,49,17.90
2021,08,11,00,50,17.90
2021,08,11,00,51,17.90
2021,08,11,00,52,17.90
2021,08,11,00,53,17.90
2021,08,11,00,54,17.80
2021,08,11,00,55,17.80
2021,08,11,00,56,17.80
2021,08,11,00,57,17.80
2021,08,11,00,58,17.80
2021,08,11,00,59,17.80
2021,08,11,01,00,17.80
2021,08,11,01,01,17.70
2021,08,11,01,02,17.70
2021,08,11,01,03,17.70
2021,08,11,01,04,17.70
2021,08,11,01,05,17.70
2021,08,11,01,06,17.70
2021,08,11,01,07,17.70
2021,08,11,01,08,17.70
2021,08,11,01,09,17.60
2021,08,11,01,10,17.60
2021,08,11,01,11,17.60
2021,08,11,01,12,17.60
2021,08,11,01,13,17.60
2021,08,11,01,14,17.60
2021,08,11,01,15,17.60
2021,08,11,01,16,17.60
2021,08,11,01,17,17.60
2021,08,11,01,18,17.60
2021,08,11,01,19,17.60
2021,08,11,01,20,17.50
2021,08,11,01,21,17.50
2021,08,11,01,22,17.50
2021,08,11,01,23,17.50
2021,08,11,01,24,17.50
2021,08,11,01,25,17.50
2021,08,11,01,26,17.50
2021,08,11,01,27,17.50
2021,08,11,01,28,17.50
2021,08,11,01,29,17.50
2021,08,11,01,30,17.50
2021,08,11,01,31,17.50
2021,08,11,01,32,17.50
2021,08,11,01,33,17.50
2021,08,11,01,34,17.50
2021,08,11,01,35,17.50
2021,08,11,01,36,17.50
2021,08,11,01,37,17.50
2021,08,11,01,38,17.40
2021,08,11,01,39,17.40
2021,08,11,01,40,17.40
2021,08,11,01,41,17.40
2021,08,11,01,42,17.40
2021,08,11,01,43,17.40
2021,08,11,01,44,17.40
2021,08,11,01,45,17.40
2021,08,11,01,46,17.40
2021,08,11,01,47,17.40
2021,08,11,01,48,17.40
2021,08,11,01,49,17.30
2021,08,11,01,50,17.30
2021,08,11,01,51,17.30
2021,08,11,01,52,17.30
2021,08,11,01,53,17.30
2021,08,11,01,54,17.30
2021,08,11,01,55,17.30
2021,08,11,01,56,17.30
2021,08,11,01,57,17.30
2021,08,11,01,58,17.30
2021,08,11,01,59,17.30
2021,08,11,02,00,17.30
2021,08,11,02,01,17.30
2021,08,11,02,02,17.30
2021,08,11,02,03,17.30
2021,08,11,02,04,17.30
2021,08,11,02,05,17.30
2021,08,11,02,06,17.30
2021,08,11,02,07,17.30
2021,08,11,02,08,17.40
2021,08,11,02,09,17.40
2021,08,11,02,10,17.40
2021,08,11,02,11,17.40
2021,08,11,02,12,17.40
2021,08,11,02,13,17.50
2021,08,11,02,14,17.50
2021,08,11,02,15,17.40
2021,08,11,02,16,17.40
2021,08,11,02,17,17.40
2021,08,11,02,18,17.40
2021,08,11,02,19,17.30
2021,08,11,02,20,17.30
2021,08,11,02,21,17.30
2021,08,11,02,22,17.30
2021,08,11,02,23,17.30
2021,08,11,02,24,17.30
2021,08,11,02,25,17.20
2021,08,11,02,26,17.20
2021,08,11,02,27,17.20
2021,08,11,02,28,17.10
2021,08,11,02,29,17.10
2021,08,11,02,30,17.10
2021,08,11,02,31,17.10
2021,08,11,02,32,17.00
2021,08,11,02,33,17.00
2021,08,11,02,34,17.00
2021,08,11,02,35,17.00
2021,08,11,02,36,17.00
2021,08,11,02,37,17.00
2021,08,11,02,38,17.00
2021,08,11,02,39,17.00
2021,08,11,02,40,16.90
2021,08,11,02,41,16.90
2021,08,11,02,42,16.90
2021,08,11,02,43,16.90
2021,08,11,02,44,16.90
2021,08,11,02,45,16.90
2021,08,11,02,46,16.90
2021,08,11,02,47,16.90
2021,08,11,02,48,16.90
2021,08,11,02,49,16.90
2021,08,11,02,50,16.90
2021,08,11,02,51,16.90
2021,08,11,02,52,16.90
2021,08,11,02,53,16.90
2021,08,11,02,54,16.90
2021,08,11,02,55,16.90
2021,08,11,02,56,16.90
2021,08,11,02,57,17.00
2021,08,11,02,58,17.00
2021,08,11,02,59,17.00
2021,08,11,03,00,17.00
2021,08,11,03,01,17.00
2021,08,11,03,02,17.00
2021,08,11,03,03,17.00
2021,08,11,03,04,17.00
2021,08,11,03,05,17.00
2021,08,11,03,06,17.00
2021,08,11,03,07,17.00
2021,08,11,03,08,17.00
2021,08,11,03,09,17.00
2021,08,11,03,10,17.00
2021,08,11,03,11,17.00
2021,08,11,03,12,17.00
2021,08,11,03,13,17.00
2021,08,11,03,14,17.00
2021,08,11,03,15,17.00
2021,08,11,03,16,17.00
2021,08,11,03,17,17.00
2021,08,11,03,18,17.00
2021,08,11,03,19,17.00
2021,08,11,03,20,17.00
2021,08,11,03,21,17.00
2021,08,11,03,22,17.00
2021,08,11,03,23,17.00
2021,08,11,03,24,17.00
2021,08,11,03,25,17.00
2021,08,11,03,26,17.00
2021,08,11,03,27,17.00
2021,08,11,03,28,17.00
2021,08,11,03,29,17.00
2021,08,11,03,30,17.00
2021,08,11,03,31,17.00
2021,08,11,03,32,16.90
2021,08,11,03,33,16.90
2021,08,11,03,34,16.90
2021,08,11,03,35,16.90
2021,08,11,03,36,16.90
2021,08,11,03,37,16.90
2021,08,11,03,38,16.80
2021,08,11,03,39,16.80
2021,08,11,03,40,16.80
2021,08,11,03,41,16.70
2021,08,11,03,42,16.70
2021,08,11,03,43,16.70
2021,08,11,03,44,16.70
2021,08,11,03,45,16.70
2021,08,11,03,46,16.70
2021,08,11,03,47,16.70
2021,08,11,03,48,16.60
2021,08,11,03,49,16.60
2021,08,11,03,50,16.60
2021,08,11,03,51,16.60
2021,08,11,03,52,16.60
2021,08,11,03,53,16.60
2021,08,11,03,54,16.50
2021,08,11,03,55,16.40
2021,08,11,03,56,16.40
2021,08,11,03,57,16.40
2021,08,11,03,58,16.40
2021,08,11,03,59,16.40
2021,08,11,04,00,16.40
2021,08,11,04,01,16.40
2021,08,11,04,02,16.40
2021,08,11,04,03,16.40
2021,08,11,04,04,16.40
2021,08,11,04,05,16.40
2021,08,11,04,06,16.30
2021,08,11,04,07,16.30
2021,08,11,04,08,16.30
2021,08,11,04,09,16.30
2021,08,11,04,10,16.30
2021,08,11,04,11,16.30
2021,08,11,04,12,16.30
2021,08,11,04,13,16.30
2021,08,11,04,14,16.20
2021,08,11,04,15,16.20
2021,08,11,04,16,16.30
2021,08,11,04,17,16.30
2021,08,11,04,18,16.30
2021,08,11,04,19,16.30
2021,08,11,04,20,16.30
2021,08,11,04,21,16.30
2021,08,11,04,22,16.30
2021,08,11,04,23,16.30
2021,08,11,04,24,16.20
2021,08,11,04,25,16.20
2021,08,11,04,26,16.20
2021,08,11,04,27,16.20
2021,08,11,04,28,16.20
2021,08,11,04,29,16.20
2021,08,11,04,30,16.20
2021,08,11,04,31,16.20
2021,08,11,04,32,16.20
2021,08,11,04,33,16.20
2021,08,11,04,34,16.20
2021,08,11,04,35,16.20
2021,08,11,04,36,16.20
2021,08,11,04,37,16.20
2021,08,11,04,38,16.20
2021,08,11,04,39,16.20
2021,08,11,04,40,16.20
2021,08,11,04,41,16.20
2021,08,11,04,42,16.20
2021,08,11,04,43,16.20
2021,08,11,04,44,16.20
2021,08,11,04,45,16.20
2021,08,11,04,46,16.10
2021,08,11,04,47,16.10
2021,08,11,04,48,16.10
2021,08,11,04,49,16.10
2021,08,11,04,50,16.10
2021,08,11,04,51,16.10
2021,08,11,04,52,16.10
2021,08,11,04,53,16.10
2021,08,11,04,54,16.10
2021,08,11,04,55,16.10
2021,08,11,04,56,16.10
2021,08,11,04,57,16.10
2021,08,11,04,58,16.10
2021,08,11,04,59,16.10
2021,08,11,05,00,16.10
2021,08,11,05,01,16.10
2021,08,11,05,02,16.10
2021,08,11,05,03,16.10
2021,08,11,05,04,16.10
2021,08,11,05,05,16.10
2021,08,11,05,06,16.10
2021,08,11,05,07,16.10
2021,08,11,05,08,16.10
2021,08,11,05,09,16.10
2021,08,11,05,10,16.10
2021,08,11,05,11,16.00
2021,08,11,05,12,15.90
2021,08,11,05,13,15.90
2021,08,11,05,14,15.90
2021,08,11,05,15,15.90
2021,08,11,05,16,15.90
2021,08,11,05,17,15.90
2021,08,11,05,18,15.90
2021,08,11,05,19,15.90
2021,08,11,05,20,15.90
2021,08,11,05,21,15.80
2021,08,11,05,22,15.80
2021,08,11,05,23,15.80
2021,08,11,05,24,15.80
2021,08,11,05,25,15.80
2021,08,11,05,26,15.80
2021,08,11,05,27,15.80
2021,08,11,05,28,15.80
2021,08,11,05,29,15.80
2021,08,11,05,30,15.80
2021,08,11,05,31,15.80
2021,08,11,05,32,15.80
2021,08,11,05,33,15.80
2021,08,11,05,34,15.80
2021,08,11,05,35,15.80
2021,08,11,05,36,15.80
2021,08,11,05,37,15.80
2021,08,11,05,38,15.70
2021,08,11,05,39,15.70
2021,08,11,05,40,15.70
2021,08,11,05,41,15.70
2021,08,11,05,42,15.70
2021,08,11,05,43,15.70
2021,08,11,05,44,15.60
2021,08,11,05,45,15.60
2021,08,11,05,46,15.60
2021,08,11,05,47,15.60
2021,08,11,05,48,15.60
2021,08,11,05,49,15.60
2021,08,11,05,50,15.60
2021,08,11,05,51,15.60
2021,08,11,05,52,15.60
2021,08,11,05,53,15.60
2021,08,11,05,54,15.60
2021,08,11,05,55,15.60
2021,08,11,05,56,15.50
2021,08,11,05,57,15.50
2021,08,11,05,58,15.50
2021,08,11,05,59,15.50
2021,08,11,06,00,15.50
2021,08,11,06,01,15.50
2021,08,11,06,02,15.50
2021,08,11,06,03,15.50
2021,08,11,06,04,15.50
2021,08,11,06,05,15.50
2021,08,11,06,06,15.50
2021,08,11,06,07,15.50
2021,08,11,06,08,15.40
2021,08,11,06,09,15.40
2021,08,11,06,10,15.40
2021,08,11,06,11,15.40
2021,08,11,06,12,15.40
2021,08,11,06,13,15.40
2021,08,11,06,14,15.30
2021,08,11,06,15,15.30
2021,08,11,06,16,15.30
2021,08,11,06,17,15.30
2021,08,11,06,18,15.30
2021,08,11,06,19,15.30
2021,08,11,06,20,15.30
2021,08,11,06,21,15.40
2021,08,11,06,22,15.40
2021,08,11,06,23,15.40
2021,08,11,06,24,15.40
2021,08,11,06,25,15.40
2021,08,11,06,26,15.40
2021,08,11,06,27,15.40
2021,08,11,06,28,15.40
2021,08,11,06,29,15.40
2021,08,11,06,30,15.50
2021,08,11,06,31,15.50
2021,08,11,06,32,15.50
2021,08,11,06,33,15.50
2021,08,11,06,34,15.50
2021,08,11,06,35,15.50
2021,08,11,06,36,15.50
2021,08,11,06,37,15.50
2021,08,11,06,38,15.50
2021,08,11,06,39,15.60
2021,08,11,06,40,15.60
2021,08,11,06,41,15.60
2021,08,11,06,42,15.60
2021,08,11,06,43,15.60
2021,08,11,06,44,15.70
2021,08,11,06,45,15.80
2021,08,11,06,46,15.80
2021,08,11,06,47,15.80
2021,08,11,06,48,15.80
2021,08,11,06,49,15.80
2021,08,11,06,50,15.80
2021,08,11,06,51,15.80
2021,08,11,06,52,15.80
2021,08,11,06,53,15.80
2021,08,11,06,54,15.90
2021,08,11,06,55,15.90
2021,08,11,06,56,16.00
2021,08,11,06,57,16.10
2021,08,11,06,58,16.10
2021,08,11,06,59,16.10
2021,08,11,07,00,16.20
2021,08,11,07,01,16.20
2021,08,11,07,02,16.30
2021,08,11,07,03,16.40
2021,08,11,07,04,16.50
2021,08,11,07,05,16.60
2021,08,11,07,06,16.80
2021,08,11,07,07,16.90
2021,08,11,07,08,17.00
2021,08,11,07,09,17.10
2021,08,11,07,10,17.10
2021,08,11,07,11,17.10
2021,08,11,07,12,17.10
2021,08,11,07,13,17.20
2021,08,11,07,14,17.20
2021,08,11,07,15,17.30
2021,08,11,07,16,17.30
2021,08,11,07,17,17.40
2021,08,11,07,18,17.50
2021,08,11,07,19,17.50
2021,08,11,07,20,17.70
2021,08,11,07,21,17.70
2021,08,11,07,22,17.80
2021,08,11,07,23,17.90
2021,08,11,07,24,18.00
2021,08,11,07,25,18.20
2021,08,11,07,26,18.20
2021,08,11,07,27,18.30
2021,08,11,07,28,18.40
2021,08,11,07,29,18.50
2021,08,11,07,30,18.60
2021,08,11,07,31,18.70
2021,08,11,07,32,18.80
2021,08,11,07,33,18.90
2021,08,11,07,34,19.00
2021,08,11,07,35,19.10
2021,08,11,07,36,19.30
2021,08,11,07,37,19.40
2021,08,11,07,38,19.50
2021,08,11,07,39,19.60
2021,08,11,07,40,19.70
2021,08,11,07,41,19.80
2021,08,11,07,42,19.90
2021,08,11,07,43,19.90
2021,08,11,07,44,20.00
2021,08,11,07,45,20.10
2021,08,11,07,46,20.20
2021,08,11,07,47,20.20
2021,08,11,07,48,20.30
2021,08,11,07,49,20.40
2021,08,11,07,50,20.50
2021,08,11,07,51,20.50
2021,08,11,07,52,20.60
2021,08,11,07,53,20.60
2021,08,11,07,54,20.70
2021,08,11,07,55,20.70
2021,08,11,07,56,20.80
2021,08,11,07,57,20.80
2021,08,11,07,58,20.80
2021,08,11,07,59,20.90
2021,08,11,08,00,20.90
2021,08,11,08,01,20.90
2021,08,11,08,02,21.00
2021,08,11,08,03,21.00
2021,08,11,08,04,21.00
2021,08,11,08,05,21.00
2021,08,11,08,06,21.10
2021,08,11,08,07,21.10
2021,08,11,08,08,21.10
2021,08,11,08,09,21.00
2021,08,11,08,10,21.00
2021,08,11,08,11,21.00
2021,08,11,08,12,21.00
2021,08,11,08,13,21.00
2021,08,11,08,14,21.00
2021,08,11,08,15,21.00
2021,08,11,08,16,20.90
2021,08,11,08,17,20.90
2021,08,11,08,18,20.90
2021,08,11,08,19,20.90
2021,08,11,08,20,21.00
2021,08,11,08,21,21.00
2021,08,11,08,22,21.00
2021,08,11,08,23,21.00
2021,08,11,08,24,21.10
2021,08,11,08,25,21.10
2021,08,11,08,26,21.20
2021,08,11,08,27,21.20
2021,08,11,08,28,21.30
2021,08,11,08,29,21.30
2021,08,11,08,30,21.30
2021,08,11,08,31,21.30
2021,08,11,08,32,21.40
2021,08,11,08,33,21.40
2021,08,11,08,34,21.40
2021,08,11,08,35,21.40
2021,08,11,08,36,21.60
2021,08,11,08,37,21.60
2021,08,11,08,38,21.60
2021,08,11,08,39,21.60
2021,08,11,08,40,21.60
2021,08,11,08,41,21.60
2021,08,11,08,42,21.70
2021,08,11,08,43,21.70
2021,08,11,08,44,21.70
2021,08,11,08,45,21.70
2021,08,11,08,46,21.70
2021,08,11,08,47,21.70
2021,08,11,08,48,21.80
2021,08,11,08,49,21.80
2021,08,11,08,50,21.80
2021,08,11,08,51,21.80
2021,08,11,08,52,21.80
2021,08,11,08,53,21.80
2021,08,11,08,54,21.80
2021,08,11,08,55,21.80
2021,08,11,08,56,21.90
2021,08,11,08,57,21.90
2021,08,11,08,58,21.90
2021,08,11,08,59,21.90
2021,08,11,09,00,21.80
2021,08,11,09,01,21.80
2021,08,11,09,02,21.80
2021,08,11,09,03,21.80
2021,08,11,09,04,21.80
2021,08,11,09,05,21.80
2021,08,11,09,06,21.80
2021,08,11,09,07,21.90
2021,08,11,09,08,21.90
2021,08,11,09,09,21.90
2021,08,11,09,10,21.90
2021,08,11,09,11,22.00
2021,08,11,09,12,22.00
2021,08,11,09,13,22.00
2021,08,11,09,14,22.00
2021,08,11,09,15,22.00
2021,08,11,09,16,22.10
2021,08,11,09,17,22.10
2021,08,11,09,18,22.10
2021,08,11,09,19,22.10
2021,08,11,09,20,22.10
2021,08,11,09,21,22.10
2021,08,11,09,22,22.10
2021,08,11,09,23,22.20
2021,08,11,09,24,22.20
2021,08,11,09,25,22.20
2021,08,11,09,26,22.20
2021,08,11,09,27,22.20
2021,08,11,09,28,22.20
2021,08,11,09,29,22.20
2021,08,11,09,30,22.20
2021,08,11,09,31,22.20
2021,08,11,09,32,22.20
2021,08,11,09,33,22.20
2021,08,11,09,34,22.20
2021,08,11,09,35,22.20
2021,08,11,09,36,22.20
2021,08,11,09,37,22.20
2021,08,11,09,38,22.20
2021,08,11,09,39,22.20
2021,08,11,09,40,22.20
2021,08,11,09,41,22.30
2021,08,11,09,42,22.30
2021,08,11,09,43,22.30
2021,08,11,09,44,22.30
2021,08,11,09,45,22.40
2021,08,11,09,46,22.40
2021,08,11,09,47,22.50
2021,08,11,09,48,22.50
2021,08,11,09,49,22.50
2021,08,11,09,50,22.60
2021,08,11,09,51,22.60
2021,08,11,09,52,22.50
2021,08,11,09,53,22.50
2021,08,11,09,54,22.50
2021,08,11,09,55,22.50
2021,08,11,09,56,22.40
2021,08,11,09,57,22.40
2021,08,11,09,58,22.40
2021,08,11,09,59,22.40
2021,08,11,10,00,22.40
2021,08,11,10,01,22.40
2021,08,11,10,02,22.40
2021,08,11,10,03,22.40
2021,08,11,10,04,22.50
2021,08,11,10,05,22.50
2021,08,11,10,06,22.50
2021,08,11,10,07,22.50
2021,08,11,10,08,22.50
2021,08,11,10,09,22.50
2021,08,11,10,10,22.50
2021,08,11,10,11,22.50
2021,08,11,10,12,22.50
2021,08,11,10,13,22.50
2021,08,11,10,14,22.50
2021,08,11,10,15,22.40
2021,08,11,10,16,22.50
2021,08,11,10,17,22.50
2021,08,11,10,18,22.50
2021,08,11,10,19,22.50
2021,08,11,10,20,22.50
2021,08,11,10,21,22.60
2021,08,11,10,22,22.60
2021,08,11,10,23,22.60
2021,08,11,10,24,22.60
2021,08,11,10,25,22.60
2021,08,11,10,26,22.60
2021,08,11,10,27,22.60
2021,08,11,10,28,22.70
2021,08,11,10,29,22.70
2021,08,11,10,30,22.70
2021,08,11,10,31,22.80
2021,08,11,10,32,22.90
2021,08,11,10,33,22.90
2021,08,11,10,34,22.90
2021,08,11,10,35,22.90
2021,08,11,10,36,22.90
2021,08,11,10,37,23.00
2021,08,11,10,38,23.10
2021,08,11,10,39,23.10
2021,08,11,10,40,23.20
2021,08,11,10,41,23.10
2021,08,11,10,42,23.10
2021,08,11,10,43,23.10
2021,08,11,10,44,23.10
2021,08,11,10,45,22.90
2021,08,11,10,46,22.90
2021,08,11,10,47,22.90
2021,08,11,10,48,22.90
2021,08,11,10,49,22.90
2021,08,11,10,50,22.90
2021,08,11,10,51,22.90
2021,08,11,10,52,22.90
2021,08,11,10,53,22.90
2021,08,11,10,54,23.00
2021,08,11,10,55,23.10
2021,08,11,10,56,23.10
2021,08,11,10,57,23.10
2021,08,11,10,58,23.10
2021,08,11,10,59,23.00
2021,08,11,11,00,22.90
2021,08,11,11,01,22.90
2021,08,11,11,02,23.00
2021,08,11,11,03,23.10
2021,08,11,11,04,23.10
2021,08,11,11,05,23.10
2021,08,11,11,06,23.10
2021,08,11,11,07,23.10
2021,08,11,11,08,23.20
2021,08,11,11,09,23.20
2021,08,11,11,10,23.20
2021,08,11,11,11,23.20
2021,08,11,11,12,23.20
2021,08,11,11,13,23.20
2021,08,11,11,14,23.30
2021,08,11,11,15,23.30
2021,08,11,11,16,23.30
2021,08,11,11,17,23.30
2021,08,11,11,18,23.30
2021,08,11,11,19,23.30
2021,08,11,11,20,23.30
2021,08,11,11,21,23.40
2021,08,11,11,22,23.40
2021,08,11,11,23,23.40
2021,08,11,11,24,23.40
2021,08,11,11,25,23.40
2021,08,11,11,26,23.40
2021,08,11,11,27,23.50
2021,08,11,11,28,23.60
2021,08,11,11,29,23.50
2021,08,11,11,30,23.40
2021,08,11,11,31,23.40
2021,08,11,11,32,23.30
2021,08,11,11,33,23.40
2021,08,11,11,34,23.40
2021,08,11,11,35,23.40
2021,08,11,11,36,23.40
2021,08,11,11,37,23.40
2021,08,11,11,38,23.40
2021,08,11,11,39,23.40
2021,08,11,11,40,23.30
2021,08,11,11,41,23.30
2021,08,11,11,42,23.30
2021,08,11,11,43,23.30
2021,08,11,11,44,23.30
2021,08,11,11,45,23.30
2021,08,11,11,46,23.30
2021,08,11,11,47,23.30
2021,08,11,11,48,23.30
2021,08,11,11,49,23.30
2021,08,11,11,50,23.30
2021,08,11,11,51,23.30
2021,08,11,11,52,23.30
2021,08,11,11,53,23.30
2021,08,11,11,54,23.30
2021,08,11,11,55,23.30
2021,08,11,11,56,23.30
2021,08,11,11,57,23.30
2021,08,11,11,58,23.30
2021,08,11,11,59,23.40
2021,08,11,12,00,23.40
2021,08,11,12,01,23.40
2021,08,11,12,02,23.40
2021,08,11,12,03,23.40
2021,08,11,12,04,23.40
2021,08,11,12,05,23.40
2021,08,11,12,06,23.40
2021,08,11,12,07,23.40
2021,08,11,12,08,23.50
2021,08,11,12,09,23.60
2021,08,11,12,10,23.60
2021,08,11,12,11,23.60
2021,08,11,12,12,23.70
2021,08,11,12,13,23.70
2021,08,11,12,14,23.80
2021,08,11,12,15,23.80
2021,08,11,12,16,23.80
2021,08,11,12,17,23.90
2021,08,11,12,18,23.90
2021,08,11,12,19,23.90
2021,08,11,12,20,23.90
2021,08,11,12,21,24.00
2021,08,11,12,22,24.10
2021,08,11,12,23,24.10
2021,08,11,12,24,24.10
2021,08,11,12,25,24.10
2021,08,11,12,26,24.00
2021,08,11,12,27,23.90
2021,08,11,12,28,23.80
2021,08,11,12,29,23.70
2021,08,11,12,30,23.70
2021,08,11,12,31,23.70
2021,08,11,12,32,23.70
2021,08,11,12,33,23.70
2021,08,11,12,34,23.70
2021,08,11,12,35,23.70
2021,08,11,12,36,23.70
2021,08,11,12,37,23.70
2021,08,11,12,38,23.70
2021,08,11,12,39,23.70
2021,08,11,12,40,23.70
2021,08,11,12,41,23.70
2021,08,11,12,42,23.80
2021,08,11,12,43,23.80
2021,08,11,12,44,23.80
2021,08,11,12,45,23.80
2021,08,11,12,46,23.80
2021,08,11,12,47,23.80
2021,08,11,12,48,23.70
2021,08,11,12,49,23.70
2021,08,11,12,50,23.80
2021,08,11,12,51,23.80
2021,08,11,12,52,23.90
2021,08,11,12,53,23.90
2021,08,11,12,54,23.90
2021,08,11,12,55,23.90
2021,08,11,12,56,23.90
2021,08,11,12,57,23.80
2021,08,11,12,58,23.90
2021,08,11,12,59,23.90
2021,08,11,13,00,24.00
2021,08,11,13,01,24.10
2021,08,11,13,02,24.10
2021,08,11,13,03,24.20
2021,08,11,13,04,24.20
2021,08,11,13,05,24.30
2021,08,11,13,06,24.30
2021,08,11,13,07,24.30
2021,08,11,13,08,24.20
2021,08,11,13,09,24.30
2021,08,11,13,10,24.30
2021,08,11,13,11,24.20
2021,08,11,13,12,24.20
2021,08,11,13,13,24.20
2021,08,11,13,14,24.10
2021,08,11,13,15,24.10
2021,08,11,13,16,24.00
2021,08,11,13,17,23.90
2021,08,11,13,18,23.80
2021,08,11,13,19,23.80
2021,08,11,13,20,23.70
2021,08,11,13,21,23.70
2021,08,11,13,22,23.70
2021,08,11,13,23,23.70
2021,08,11,13,24,23.70
2021,08,11,13,25,23.70
2021,08,11,13,26,23.70
2021,08,11,13,27,23.70
2021,08,11,13,28,23.70
2021,08,11,13,29,23.70
2021,08,11,13,30,23.80
2021,08,11,13,31,23.90
2021,08,11,13,32,23.90
2021,08,11,13,33,23.90
2021,08,11,13,34,23.90
2021,08,11,13,35,24.00
2021,08,11,13,36,24.10
2021,08,11,13,37,24.10
2021,08,11,13,38,24.10
2021,08,11,13,39,24.10
2021,08,11,13,40,24.10
2021,08,11,13,41,24.20
2021,08,11,13,42,24.20
2021,08,11,13,43,24.30
2021,08,11,13,44,24.30
2021,08,11,13,45,24.30
2021,08,11,13,46,24.30
2021,08,11,13,47,24.30
2021,08,11,13,48,24.30
2021,08,11,13,49,24.30
2021,08,11,13,50,24.30
2021,08,11,13,51,24.30
2021,08,11,13,52,24.40
2021,08,11,13,53,24.40
2021,08,11,13,54,24.40
2021,08,11,13,55,24.40
2021,08,11,13,56,24.50
2021,08,11,13,57,24.60
2021,08,11,13,58,24.60
2021,08,11,13,59,24.60
2021,08,11,14,00,24.60
2021,08,11,14,01,24.70
2021,08,11,14,02,24.70
2021,08,11,14,03,24.70
2021,08,11,14,04,24.70
2021,08,11,14,05,24.80
2021,08,11,14,06,24.90
2021,08,11,14,07,24.90
2021,08,11,14,08,24.90
2021,08,11,14,09,24.90
2021,08,11,14,10,25.00
2021,08,11,14,11,25.10
2021,08,11,14,12,25.10
2021,08,11,14,13,25.20
2021,08,11,14,14,25.20
2021,08,11,14,15,25.30
2021,08,11,14,16,25.40
2021,08,11,14,17,25.40
2021,08,11,14,18,25.50
2021,08,11,14,19,25.50
2021,08,11,14,20,25.60
2021,08,11,14,21,25.60
2021,08,11,14,22,25.60
2021,08,11,14,23,25.60
2021,08,11,14,24,25.60
2021,08,11,14,25,25.60
2021,08,11,14,26,25.50
2021,08,11,14,27,25.50
2021,08,11,14,28,25.50
2021,08,11,14,29,25.50
2021,08,11,14,30,25.50
2021,08,11,14,31,25.50
2021,08,11,14,32,25.50
2021,08,11,14,33,25.50
2021,08,11,14,34,25.50
2021,08,11,14,35,25.50
2021,08,11,14,36,25.50
2021,08,11,14,37,25.40
2021,08,11,14,38,25.40
2021,08,11,14,39,25.30
2021,08,11,14,40,25.30
2021,08,11,14,41,25.30
2021,08,11,14,42,25.30
2021,08,11,14,43,25.30
2021,08,11,14,44,25.40
2021,08,11,14,45,25.40
2021,08,11,14,46,25.50
2021,08,11,14,47,25.60
2021,08,11,14,48,25.60
2021,08,11,14,49,25.60
2021,08,11,14,50,25.70
2021,08,11,14,51,25.70
2021,08,11,14,52,25.70
2021,08,11,14,53,25.70
2021,08,11,14,54,25.70
2021,08,11,14,55,25.80
2021,08,11,14,56,25.80
2021,08,11,14,57,25.90
2021,08,11,14,58,25.90
2021,08,11,14,59,26.00
2021,08,11,15,00,26.00
2021,08,11,15,01,26.10
2021,08,11,15,02,26.10
2021,08,11,15,03,26.10
2021,08,11,15,04,26.10
2021,08,11,15,05,26.10
2021,08,11,15,06,26.10
2021,08,11,15,07,26.00
2021,08,11,15,08,26.00
2021,08,11,15,09,26.00
2021,08,11,15,10,26.00
2021,08,11,15,11,26.00
2021,08,11,15,12,26.00
2021,08,11,15,13,26.00
2021,08,11,15,14,26.00
2021,08,11,15,15,26.00
2021,08,11,15,16,26.10
2021,08,11,15,17,26.10
2021,08,11,15,18,26.20
2021,08,11,15,19,26.20
2021,08,11,15,20,26.20
2021,08,11,15,21,26.30
2021,08,11,15,22,26.30
2021,08,11,15,23,26.40
2021,08,11,15,24,26.40
2021,08,11,15,25,26.40
2021,08,11,15,26,26.30
2021,08,11,15,27,26.30
2021,08,11,15,28,26.20
2021,08,11,15,29,26.30
2021,08,11,15,30,26.40
2021,08,11,15,31,26.40
2021,08,11,15,32,26.50
2021,08,11,15,33,26.50
2021,08,11,15,34,26.40
2021,08,11,15,35,26.40
2021,08,11,15,36,26.30
2021,08,11,15,37,26.20
2021,08,11,15,38,26.20
2021,08,11,15,39,26.10
2021,08,11,15,40,26.10
2021,08,11,15,41,26.10
2021,08,11,15,42,26.00
2021,08,11,15,43,26.00
2021,08,11,15,44,25.90
2021,08,11,15,45,25.90
2021,08,11,15,46,25.90
2021,08,11,15,47,25.90
2021,08,11,15,48,25.90
2021,08,11,15,49,25.90
2021,08,11,15,50,25.90
2021,08,11,15,51,26.00
2021,08,11,15,52,25.90
2021,08,11,15,53,25.90
2021,08,11,15,54,25.90
2021,08,11,15,55,25.90
2021,08,11,15,56,25.90
2021,08,11,15,57,25.90
2021,08,11,15,58,25.90
2021,08,11,15,59,25.90
2021,08,11,16,00,25.80
2021,08,11,16,01,25.70
2021,08,11,16,02,25.60
2021,08,11,16,03,25.60
2021,08,11,16,04,25.60
2021,08,11,16,05,25.50
2021,08,11,16,06,25.40
2021,08,11,16,07,25.40
2021,08,11,16,08,25.40
2021,08,11,16,09,25.40
2021,08,11,16,10,25.50
2021,08,11,16,11,25.40
2021,08,11,16,12,25.40
2021,08,11,16,13,25.40
2021,08,11,16,14,25.40
2021,08,11,16,15,25.40
2021,08,11,16,16,25.40
2021,08,11,16,17,25.50
2021,08,11,16,18,25.50
2021,08,11,16,19,25.50
2021,08,11,16,20,25.60
2021,08,11,16,21,25.60
2021,08,11,16,22,25.60
2021,08,11,16,23,25.60
2021,08,11,16,24,25.60
2021,08,11,16,25,25.60
2021,08,11,16,26,25.60
2021,08,11,16,27,25.60
2021,08,11,16,28,25.60
2021,08,11,16,29,25.70
2021,08,11,16,30,25.70
2021,08,11,16,31,25.70
2021,08,11,16,32,25.70
2021,08,11,16,33,25.70
2021,08,11,16,34,25.70
2021,08,11,16,35,25.70
2021,08,11,16,36,25.70
2021,08,11,16,37,25.80
2021,08,11,16,38,25.80
2021,08,11,16,39,25.80
2021,08,11,16,40,25.80
2021,08,11,16,41,25.80
2021,08,11,16,42,25.80
2021,08,11,16,43,25.80
2021,08,11,16,44,25.80
2021,08,11,16,45,25.80
2021,08,11,16,46,25.70
2021,08,11,16,47,25.70
2021,08,11,16,48,25.60
2021,08,11,16,49,25.50
2021,08,11,16,50,25.40
2021,08,11,16,51,25.40
2021,08,11,16,52,25.30
2021,08,11,16,53,25.30
2021,08,11,16,54,25.30
2021,08,11,16,55,25.30
2021,08,11,16,56,25.30
2021,08,11,16,57,25.40
2021,08,11,16,58,25.40
2021,08,11,16,59,25.50
2021,08,11,17,00,25.60
2021,08,11,17,01,25.70
2021,08,11,17,02,25.80
2021,08,11,17,03,25.80
2021,08,11,17,04,25.80
2021,08,11,17,05,25.80
2021,08,11,17,06,25.80
2021,08,11,17,07,25.70
2021,08,11,17,08,25.80
2021,08,11,17,09,25.80
2021,08,11,17,10,25.80
2021,08,11,17,11,25.90
2021,08,11,17,12,25.90
2021,08,11,17,13,25.90
2021,08,11,17,14,25.90
2021,08,11,17,15,25.90
2021,08,11,17,16,25.80
2021,08,11,17,17,25.80
2021,08,11,17,18,25.80
2021,08,11,17,19,25.80